Location: Boiro
(42.6475°N, 8.8834°W)
Time: 05:05:25
(UTC+01:00)

Transit 4A - Pass Details

Date: 04 December 2021
Orbit: 864 x 980 km, 66.8° (Epoch: 17 January)

Event Time Altitude Azimuth Distance (km) Brightness Sun altitude
Exits shadow 07:48:31 12° 271° (W) 2,589 9.6 -10.9°
Maximum altitude 07:49:41 12° 259° (W) 2,550 9.7 -10.7°
Drops below altitude 10° 07:52:03 10° 237° (WSW) 2,719 10.0 -10.3°
Sets 07:56:26 0° 209° (SSW) 3,668 10.9 -9.6°
